sat.trackr.live / text

‹ back to catalog

STARLINK-4128

NORAD 53249 · 2022-086H

PAYLOAD ACTIVE UNKNOWN

§ Identity

Operator
Country
US
Launch date
2022-07-24
Launch site
AFETR
Launch vehicle
Mass (kg)
RCS (m²)

Purposes: comms

External: N2YO · Heavens-Above · Gunter

§ Orbital elements

Epoch: 2026-05-24T21:16:48.268128Z

Period
95.44 min
Inclination
53.2131°
Eccentricity
0.0001369
Mean motion
15.08836437 rev/d
Perigee alt
538.8 km
Apogee alt
540.7 km
Semi-major
6,917.9 km
B*
-2.0620e-5
RAAN
212.0672°
Arg perigee
94.6632°
Mean anomaly
265.4516°
Rev number
21,258

§ Raw data

STARLINK-41281 53249U 22086H   26144.88666977 -.00000616  00000+0 -20620-4 0  99932 53249  53.2131 212.0672 0001369  94.6632 265.4516 15.08836437212581

JSON: /api/v1/satellites/53249 · /tle

For live sub-satellite position, see the globe view (requires WebGL).

§ Visibility from observer

Set your observer location to see the next 7 days of passes ≥ 10°. The values pass through the URL so the page stays shareable.

No JS? Fill the form by hand. The geolocation button needs JavaScript.